Location: Colorado Springs
(38.8340°N, 104.8210°W)
Time: 06:49:56
(UTC-07:00)

Vanguard 3 - Pass Details

Date: 28 October 2017
Orbit: 509 x 3263 km, 33.4° (Epoch: 18 November)

Event Time Altitude Azimuth Distance (km) Brightness Sun altitude
Rises 00:17:37 0° 209° (SSW) 6,951 - -63.8°
Reaches altitude 10° 00:22:54 10° 200° (SSW) 6,105 - -64.0°
Maximum altitude 00:39:14 34° 145° (SE) 4,388 - -64.4°
Drops below altitude 10° 00:53:16 10° 89° (E) 5,310 - -64.3°
Exits shadow 00:53:20 10° 89° (E) 5,320 11.3 -64.3°
Sets 00:57:22 0° 81° (E) 5,985 11.7 -64.2°
